GW3083 Weather Reports


Display with metric or nautical units.
time (UTC)temp
F
wind
direction
speed
MPH
gust
MPH
rain 1hr
in
rain 24hr
in
rain mn
in
humidity
%
barometer
mb
20260507151519 73 146 0.0 4.0 0.00 0.00 0.00 26 1014.3
20260507151010 73 176 0.0 4.0 0.00 0.00 0.00 27 1014.3
20260507150506 72 179 0.0 5.0 0.00 0.00 0.00 27 1014.3
20260507150031 72 205 0.0 5.0 0.00 0.00 0.00 28 1014.3
20260507145507 71 178 0.0 4.0 0.00 0.00 0.00 29 1014.3
20260507145005 70 174 1.0 4.0 0.00 0.00 0.00 29 1014.3
20260507144527 69 152 0.0 4.0 0.00 0.00 0.00 29 1014.3
20260507144003 69 205 0.0 4.0 0.00 0.00 0.00 30 1014.2
20260507143506 68 165 1.0 5.0 0.00 0.00 0.00 30 1014.3
20260507143016 68 231 1.0 5.0 0.00 0.00 0.00 30 1014.2
20260507142509 67 199 1.0 4.0 0.00 0.00 0.00 31 1014.3
20260507142007 67 245 0.0 3.0 0.00 0.00 0.00 32 1014.2
20260507141521 67 120 0.0 3.0 0.00 0.00 0.00 32 1014.3
20260507141007 66 205 0.0 1.0 0.00 0.00 0.00 33 1014.4
20260507140511 66 160 0.0 3.0 0.00 0.00 0.00 35 1014.3
20260507140025 65 143 1.0 3.0 0.00 0.00 0.00 35 1014.3
20260507135510 64 141 0.0 4.0 0.00 0.00 0.00 37 1014.2
20260507135017 64 153 1.0 4.0 0.00 0.00 0.00 37 1014.2
20260507134528 64 146 0.0 0.0 0.00 0.00 0.00 39 1014.1
20260507134010 63 146 0.0 0.0 0.00 0.00 0.00 38 1014.0
20260507133505 62 146 0.0 0.0 0.00 0.00 0.00 38 1013.8
20260507133019 62 146 0.0 0.0 0.00 0.00 0.00 39 1013.8
20260507132509 61 146 0.0 0.0 0.00 0.00 0.00 40 1013.8
20260507132010 61 146 0.0 1.0 0.00 0.00 0.00 41 1013.8
20260507131528 61 146 0.0 1.0 0.00 0.00 0.00 41 1013.7
20260507131009 61 145 0.0 1.0 0.00 0.00 0.00 43 1013.5
20260507130511 61 146 0.0 1.0 0.00 0.00 0.00 43 1013.6
20260507130027 60 210 0.0 0.0 0.00 0.00 0.00 42 1013.6
20260507125511 60 210 0.0 0.0 0.00 0.00 0.00 42 1013.5
20260507125011 60 211 0.0 0.0 0.00 0.00 0.00 41 1013.5
20260507124527 60 211 0.0 0.0 0.00 0.00 0.00 40 1013.5
20260507124007 60 211 0.0 0.0 0.00 0.00 0.00 40 1013.6
20260507123509 60 212 0.0 0.0 0.00 0.00 0.00 40 1013.6
20260507123020 61 211 0.0 3.0 0.00 0.00 0.00 40 1013.5
20260507122508 61 210 0.0 3.0 0.00 0.00 0.00 40 1013.5
20260507122010 61 168 0.0 1.0 0.00 0.00 0.00 42 1013.6
20260507121525 61 225 0.0 0.0 0.00 0.00 0.00 41 1013.4
20260507121010 62 225 0.0 0.0 0.00 0.00 0.00 38 1013.3
20260507120510 63 225 0.0 0.0 0.00 0.00 0.00 38 1013.3
20260507120036 63 225 0.0 0.0 0.00 0.00 0.00 38 1013.3
20260507115507 64 225 0.0 0.0 0.00 0.00 0.00 36 1013.3
20260507115010 65 226 0.0 0.0 0.00 0.00 0.00 35 1013.4
20260507114526 65 224 0.0 1.0 0.00 0.00 0.00 34 1013.4
20260507114007 65 347 0.0 1.0 0.00 0.00 0.00 34 1013.3
20260507113507 65 347 0.0 0.0 0.00 0.00 0.00 33 1013.3
20260507113023 65 347 0.0 0.0 0.00 0.00 0.00 33 1013.4
20260507112510 66 347 0.0 1.0 0.00 0.00 0.00 32 1013.3
20260507112014 66 347 0.0 2.0 0.00 0.00 0.00 31 1013.3
20260507111525 66 347 0.0 2.0 0.00 0.00 0.00 30 1013.2
20260507111005 66 347 0.0 2.0 0.00 0.00 0.00 31 1013.2
20260507110504 66 347 0.0 1.0 0.00 0.00 0.00 31 1013.2
20260507110006 66 347 0.0 0.0 0.00 0.00 0.00 31 1013.3
20260507105503 66 347 0.0 0.0 0.00 0.00 0.00 30 1013.3
20260507105007 67 347 0.0 0.0 0.00 0.00 0.00 30 1013.4
20260507104510 67 347 0.0 1.0 0.00 0.00 0.00 30 1013.4
20260507104009 67 347 0.0 2.0 0.00 0.00 0.00 30 1013.4
20260507103510 67 347 0.0 3.0 0.00 0.00 0.00 30 1013.4
20260507103003 66 347 0.0 3.0 0.00 0.00 0.00 31 1013.4
20260507102510 65 349 0.0 1.0 0.00 0.00 0.00 32 1013.4
20260507102003 64 297 0.0 0.0 0.00 0.00 0.00 33 1013.4
20260507101507 64 297 0.0 0.0 0.00 0.00 0.00 34 1013.5
20260507101003 64 297 0.0 0.0 0.00 0.00 0.00 34 1013.6
20260507100504 64 297 0.0 0.0 0.00 0.00 0.00 34 1013.7
20260507100007 63 297 0.0 0.0 0.00 0.00 0.00 35 1013.7
20260507095510 63 297 0.0 0.0 0.00 0.00 0.00 35 1013.8
20260507095004 63 296 0.0 0.0 0.00 0.00 0.00 35 1013.9
20260507094505 64 297 0.0 0.0 0.00 0.00 0.00 34 1013.9
20260507094009 64 297 0.0 0.0 0.00 0.00 0.00 34 1014.0
20260507093504 64 296 0.0 0.0 0.00 0.00 0.00 34 1014.0
20260507093004 65 297 0.0 0.0 0.00 0.00 0.00 33 1014.1
20260507092508 65 297 0.0 0.0 0.00 0.00 0.00 33 1014.1
20260507092003 64 296 0.0 0.0 0.00 0.00 0.00 34 1014.2
20260507091507 64 296 0.0 0.0 0.00 0.00 0.00 34 1014.2
20260507091004 64 297 0.0 0.0 0.00 0.00 0.00 34 1014.1
20260507090504 64 297 0.0 0.0 0.00 0.00 0.00 35 1014.2
20260507090020 65 297 0.0 0.0 0.00 0.00 0.00 34 1014.2
20260507085504 65 297 0.0 0.0 0.00 0.00 0.00 33 1014.2
20260507085006 65 297 0.0 0.0 0.00 0.00 0.00 33 1014.3
20260507084520 65 297 0.0 0.0 0.00 0.00 0.00 34 1014.3
20260507084006 65 297 0.0 0.0 0.00 0.00 0.00 34 1014.3
20260507083504 64 297 0.0 0.0 0.00 0.00 0.00 35 1014.4
20260507083026 64 297 0.0 0.0 0.00 0.00 0.00 36 1014.4
20260507082509 64 297 0.0 0.0 0.00 0.00 0.00 36 1014.5
20260507082006 64 297 0.0 0.0 0.00 0.00 0.00 37 1014.5
20260507081513 63 297 0.0 0.0 0.00 0.00 0.00 39 1014.6
20260507081006 63 295 0.0 0.0 0.00 0.00 0.00 41 1014.5
20260507080506 63 295 0.0 0.0 0.00 0.00 0.00 42 1014.6
20260507080015 63 296 0.0 0.0 0.00 0.00 0.00 42 1014.6
20260507075509 64 295 0.0 0.0 0.00 0.00 0.00 42 1014.6
20260507075007 64 296 0.0 0.0 0.00 0.00 0.00 42 1014.6
20260507074534 64 295 0.0 0.0 0.00 0.00 0.00 42 1014.6
20260507074008 64 296 0.0 0.0 0.00 0.00 0.00 43 1014.6
20260507073506 64 296 0.0 0.0 0.00 0.00 0.00 43 1014.5
20260507073027 64 295 0.0 0.0 0.00 0.00 0.00 43 1014.4
20260507072509 64 296 0.0 0.0 0.00 0.00 0.00 43 1014.5
20260507072004 65 295 0.0 0.0 0.00 0.00 0.00 41 1014.4
20260507071511 65 295 0.0 0.0 0.00 0.00 0.00 40 1014.4
20260507071006 65 296 0.0 0.0 0.00 0.00 0.00 40 1014.4
20260507070507 65 296 0.0 0.0 0.00 0.00 0.00 39 1014.4
20260507070020 65 297 0.0 0.0 0.00 0.00 0.00 39 1014.4
20260507065508 66 297 0.0 0.0 0.00 0.00 0.00 39 1014.5
20260507065006 66 295 0.0 0.0 0.00 0.00 0.00 39 1014.5
20260507064525 66 297 0.0 0.0 0.00 0.00 0.00 38 1014.5
20260507064006 66 295 0.0 0.0 0.00 0.00 0.00 38 1014.5
20260507063504 66 297 0.0 0.0 0.00 0.00 0.00 38 1014.5
20260507063027 66 296 0.0 0.0 0.00 0.00 0.00 38 1014.5
20260507062509 66 295 0.0 0.0 0.00 0.00 0.00 36 1014.5
20260507062006 66 296 0.0 0.0 0.00 0.00 0.00 36 1014.5
20260507061509 66 296 0.0 0.0 0.00 0.00 0.00 34 1014.5
20260507061004 66 297 0.0 0.0 0.00 0.00 0.00 34 1014.6
20260507060504 66 297 0.0 0.0 0.00 0.00 0.00 35 1014.6
20260507060015 66 295 0.0 0.0 0.00 0.00 0.00 33 1014.6
20260507055509 66 296 0.0 0.0 0.00 0.00 0.00 33 1014.6
20260507055007 66 296 0.0 0.0 0.00 0.00 0.00 35 1014.6
20260507054522 67 295 0.0 0.0 0.00 0.00 0.00 36 1014.6
20260507054008 67 297 0.0 0.0 0.00 0.00 0.00 32 1014.6
20260507053507 68 297 0.0 0.0 0.00 0.00 0.00 32 1014.5
20260507053027 68 297 0.0 0.0 0.00 0.00 0.00 30 1014.5
20260507052507 68 296 0.0 0.0 0.00 0.00 0.00 30 1014.5
20260507052011 68 295 0.0 0.0 0.00 0.00 0.00 29 1014.6
20260507051512 69 296 0.0 0.0 0.00 0.00 0.00 29 1014.6
20260507051013 69 297 0.0 0.0 0.00 0.00 0.00 31 1014.6
20260507050510 69 297 0.0 0.0 0.00 0.00 0.00 32 1014.5
20260507050025 70 295 0.0 0.0 0.00 0.00 0.00 32 1014.5
20260507045507 70 295 0.0 0.0 0.00 0.00 0.00 30 1014.3
20260507045009 70 297 0.0 0.0 0.00 0.00 0.00 29 1014.3
20260507044525 70 296 0.0 0.0 0.00 0.00 0.00 30 1014.3
20260507044011 70 295 0.0 0.0 0.00 0.00 0.00 30 1014.3
20260507043513 69 297 0.0 0.0 0.00 0.00 0.00 31 1014.3
20260507043024 70 297 0.0 0.0 0.00 0.00 0.00 33 1014.3
20260507042507 70 297 0.0 0.0 0.00 0.00 0.00 31 1014.2
20260507042014 71 297 0.0 0.0 0.00 0.00 0.00 28 1014.2
20260507041514 71 297 0.0 0.0 0.00 0.00 0.00 28 1014.2
20260507041007 71 297 0.0 0.0 0.00 0.00 0.00 28 1014.1
20260507040508 72 297 0.0 0.0 0.00 0.00 0.00 27 1014.0
20260507040021 72 297 0.0 0.0 0.00 0.00 0.00 27 1014.0
20260507035506 72 297 0.0 0.0 0.00 0.00 0.00 27 1013.9
20260507035008 73 297 0.0 0.0 0.00 0.00 0.00 25 1013.9
20260507034525 73 297 0.0 0.0 0.00 0.00 0.00 24 1013.8
20260507034009 74 297 0.0 0.0 0.00 0.00 0.00 24 1013.7
20260507033509 73 297 0.0 0.0 0.00 0.00 0.00 24 1013.7
20260507033028 73 297 0.0 0.0 0.00 0.00 0.00 25 1013.5
20260507032509 73 297 0.0 0.0 0.00 0.00 0.00 25 1013.5
20260507032018 74 297 0.0 0.0 0.00 0.00 0.00 25 1013.5
20260507031515 75 297 0.0 0.0 0.00 0.00 0.00 25 1013.4
20260507031008 76 297 0.0 0.0 0.00 0.00 0.00 23 1013.4
20260507030511 76 297 0.0 0.0 0.00 0.00 0.00 22 1013.3
20260507030023 76 297 0.0 0.0 0.00 0.00 0.00 22 1013.3
20260507025506 77 297 0.0 0.0 0.00 0.00 0.00 22 1013.1
20260507025011 77 297 0.0 1.0 0.00 0.00 0.00 21 1013.1
20260507024525 77 297 0.0 1.0 0.00 0.00 0.00 21 1013.1
20260507024007 77 297 0.0 0.0 0.00 0.00 0.00 21 1013.0
20260507023514 78 297 0.0 0.0 0.00 0.00 0.00 21 1013.0
20260507023029 78 297 0.0 0.0 0.00 0.00 0.00 20 1012.9
20260507022509 78 297 0.0 0.0 0.00 0.00 0.00 20 1012.9
20260507022014 79 297 0.0 0.0 0.00 0.00 0.00 20 1012.9
20260507021520 79 297 0.0 1.0 0.00 0.00 0.00 20 1012.8
20260507021009 79 297 0.0 1.0 0.00 0.00 0.00 19 1012.7
20260507020514 79 284 0.0 1.0 0.00 0.00 0.00 19 1012.7
20260507020005 80 295 0.0 2.0 0.00 0.00 0.00 19 1012.7
20260507015503 80 294 0.0 4.0 0.00 0.00 0.00 19 1012.7
20260507015003 81 276 1.0 4.0 0.00 0.00 0.00 18 1012.6
20260507014504 81 192 0.0 4.0 0.00 0.00 0.00 18 1012.6
20260507014004 82 276 1.0 3.0 0.00 0.00 0.00 18 1012.6
20260507013506 83 285 0.0 3.0 0.00 0.00 0.00 18 1012.6
20260507013005 83 282 0.0 5.0 0.00 0.00 0.00 18 1012.6
20260507012506 83 299 1.0 5.0 0.00 0.00 0.00 17 1012.6
20260507012008 83 305 0.0 3.0 0.00 0.00 0.00 17 1012.6
20260507011506 83 290 0.0 3.0 0.00 0.00 0.00 17 1012.6
20260507011011 83 290 0.0 3.0 0.00 0.00 0.00 18 1012.6
20260507010504 83 269 1.0 5.0 0.00 0.00 0.00 17 1012.6
20260507010006 83 311 2.0 5.0 0.00 0.00 0.00 17 1012.6
20260507005503 84 316 1.0 5.0 0.00 0.00 0.00 17 1012.6
20260507005006 84 293 0.0 6.0 0.00 0.00 0.00 17 1012.6
20260507004505 84 250 1.0 6.0 0.00 0.00 0.00 17 1012.5
20260507004013 84 271 0.0 3.0 0.00 0.00 0.00 16 1012.5
20260507003507 84 271 0.0 4.0 0.00 0.00 0.00 17 1012.5
20260507003003 84 299 0.0 5.0 0.00 0.00 0.00 17 1012.5
20260507002506 84 281 1.0 5.0 0.00 0.00 0.00 17 1012.5
20260507002007 83 307 0.0 5.0 0.00 0.00 0.00 17 1012.4
20260507001527 83 316 0.0 5.0 0.00 0.00 0.00 17 1012.4
20260507001012 83 318 0.0 9.0 0.00 0.00 0.00 18 1012.4
20260507000505 83 290 1.0 9.0 0.00 0.00 0.00 18 1012.5
20260507000006 83 310 0.0 4.0 0.00 0.00 0.00 18 1012.4
20260506235503 83 274 0.0 7.0 0.00 0.00 0.00 18 1012.4
20260506235004 83 283 0.0 12.0 0.00 0.00 0.00 17 1012.5
20260506234514 83 297 4.0 12.0 0.00 0.00 0.00 18 1012.5
20260506234007 83 280 0.0 5.0 0.00 0.00 0.00 18 1012.5
20260506233504 83 284 0.0 5.0 0.00 0.00 0.00 18 1012.6
20260506233020 83 175 0.0 6.0 0.00 0.00 0.00 18 1012.5
20260506232506 83 279 1.0 7.0 0.00 0.00 0.00 17 1012.6
20260506232006 83 307 2.0 7.0 0.00 0.00 0.00 18 1012.6
20260506231521 84 309 3.0 6.0 0.00 0.00 0.00 17 1012.6
20260506231008 83 280 0.0 7.0 0.00 0.00 0.00 18 1012.7
20260506230504 83 296 0.0 7.0 0.00 0.00 0.00 18 1012.7
20260506230006 83 200 2.0 6.0 0.00 0.00 0.00 18 1012.8
20260506225504 83 297 1.0 6.0 0.00 0.00 0.00 18 1012.8
20260506225006 84 308 1.0 5.0 0.00 0.00 0.00 17 1012.9
20260506224514 84 326 0.0 7.0 0.00 0.00 0.00 18 1012.9
20260506224006 83 318 1.0 7.0 0.00 0.00 0.00 18 1013.0
20260506223506 83 342 0.0 7.0 0.00 0.00 0.00 18 1013.0
20260506223020 83 319 1.0 8.0 0.00 0.00 0.00 18 1013.1
20260506222508 83 307 3.0 8.0 0.00 0.00 0.00 18 1013.1
20260506222007 83 322 2.0 6.0 0.00 0.00 0.00 18 1013.1
20260506221524 83 301 2.0 5.0 0.00 0.00 0.00 18 1013.2
20260506221012 83 309 1.0 4.0 0.00 0.00 0.00 18 1013.2
20260506220507 84 287 0.0 4.0 0.00 0.00 0.00 17 1013.3
20260506220026 83 350 0.0 7.0 0.00 0.00 0.00 18 1013.4
20260506215507 82 350 3.0 7.0 0.00 0.00 0.00 18 1013.5
20260506215004 82 284 0.0 5.0 0.00 0.00 0.00 18 1013.5
20260506214518 82 314 2.0 5.0 0.00 0.00 0.00 18 1013.7
20260506214007 82 285 0.0 7.0 0.00 0.00 0.00 18 1013.8
20260506213503 82 323 2.0 7.0 0.00 0.00 0.00 19 1013.9
20260506213024 82 304 1.0 6.0 0.00 0.00 0.00 19 1014.0
20260506212506 82 278 2.0 6.0 0.00 0.00 0.00 18 1014.1
20260506212007 82 313 1.0 6.0 0.00 0.00 0.00 18 1014.1
20260506211524 82 323 2.0 6.0 0.00 0.00 0.00 18 1014.2
20260506211007 83 345 1.0 5.0 0.00 0.00 0.00 18 1014.2
20260506210504 82 140 0.0 5.0 0.00 0.00 0.00 18 1014.3
20260506210028 82 107 0.0 7.0 0.00 0.00 0.00 18 1014.4
20260506205503 81 6 2.0 7.0 0.00 0.00 0.00 19 1014.5
20260506205006 81 188 0.0 8.0 0.00 0.00 0.00 19 1014.6
20260506204523 81 350 3.0 8.0 0.00 0.00 0.00 19 1014.7
20260506204006 81 284 1.0 3.0 0.00 0.00 0.00 20 1014.7
20260506203513 81 297 0.0 4.0 0.00 0.00 0.00 20 1014.7
20260506203022 80 290 1.0 6.0 0.00 0.00 0.00 21 1014.7
20260506202507 80 290 2.0 7.0 0.00 0.00 0.00 21 1014.8
20260506202012 80 316 4.0 6.0 0.00 0.00 0.00 21 1014.8
20260506201527 80 271 1.0 5.0 0.00 0.00 0.00 21 1014.9
20260506201006 79 349 0.0 5.0 0.00 0.00 0.00 22 1015.0
20260506200517 79 305 0.0 6.0 0.00 0.00 0.00 22 1015.0
20260506200027 79 323 2.0 6.0 0.00 0.00 0.00 21 1015.1
20260506195507 80 4 2.0 6.0 0.00 0.00 0.00 21 1015.2
20260506195007 79 345 2.0 5.0 0.00 0.00 0.00 22 1015.3
20260506194521 78 298 2.0 5.0 0.00 0.00 0.00 22 1015.3
20260506194009 78 179 3.0 6.0 0.00 0.00 0.00 22 1015.3
20260506193508 78 309 0.0 6.0 0.00 0.00 0.00 23 1015.4
20260506193025 78 294 0.0 8.0 0.00 0.00 0.00 23 1015.5
20260506192511 78 14 1.0 9.0 0.00 0.00 0.00 23 1015.6
20260506192012 78 310 4.0 9.0 0.00 0.00 0.00 22 1015.6
20260506191525 78 310 1.0 6.0 0.00 0.00 0.00 23 1015.6
20260506191008 79 351 3.0 7.0 0.00 0.00 0.00 22 1015.7
20260506190510 79 307 2.0 7.0 0.00 0.00 0.00 23 1015.7
20260506190028 79 357 0.0 2.0 0.00 0.00 0.00 22 1015.8
20260506185507 79 356 0.0 5.0 0.00 0.00 0.00 21 1015.8
20260506185008 78 349 0.0 6.0 0.00 0.00 0.00 24 1015.9
20260506184521 77 340 4.0 6.0 0.00 0.00 0.00 23 1015.9
20260506184006 76 307 2.0 7.0 0.00 0.00 0.00 25 1016.1
20260506183511 76 256 1.0 7.0 0.00 0.00 0.00 26 1016.1
20260506183026 76 87 1.0 5.0 0.00 0.00 0.00 24 1016.2
20260506182506 76 328 0.0 5.0 0.00 0.00 0.00 24 1016.3
20260506182014 76 289 1.0 5.0 0.00 0.00 0.00 25 1016.3
20260506181524 76 323 0.0 4.0 0.00 0.00 0.00 26 1016.4
20260506181012 76 312 1.0 8.0 0.00 0.00 0.00 26 1016.4
20260506180513 76 300 2.0 8.0 0.00 0.00 0.00 27 1016.4
20260506180027 75 307 0.0 6.0 0.00 0.00 0.00 27 1016.4
20260506175506 75 295 1.0 6.0 0.00 0.00 0.00 27 1016.4
20260506175009 75 307 2.0 6.0 0.00 0.00 0.00 26 1016.4
20260506174525 75 335 0.0 4.0 0.00 0.00 0.00 27 1016.5
20260506174006 75 30 0.0 4.0 0.00 0.00 0.00 27 1016.5
20260506173510 75 305 0.0 2.0 0.00 0.00 0.00 28 1016.4
20260506173026 74 307 0.0 6.0 0.00 0.00 0.00 28 1016.4
20260506172510 74 304 0.0 6.0 0.00 0.00 0.00 28 1016.4
20260506172012 74 282 0.0 2.0 0.00 0.00 0.00 29 1016.4
20260506171527 73 273 0.0 3.0 0.00 0.00 0.00 29 1016.4
20260506171007 73 307 0.0 3.0 0.00 0.00 0.00 29 1016.4
20260506170511 73 277 0.0 4.0 0.00 0.00 0.00 29 1016.4
20260506170003 73 287 0.0 4.0 0.00 0.00 0.00 30 1016.4
20260506165508 73 316 0.0 1.0 0.00 0.00 0.00 30 1016.4
20260506165006 72 336 0.0 1.0 0.00 0.00 0.00 30 1016.4
20260506164506 72 255 0.0 2.0 0.00 0.00 0.00 31 1016.4
20260506164008 71 167 0.0 2.0 0.00 0.00 0.00 31 1016.4
20260506163504 71 346 0.0 2.0 0.00 0.00 0.00 30 1016.4
20260506163009 72 300 0.0 2.0 0.00 0.00 0.00 31 1016.4
20260506162504 72 300 0.0 1.0 0.00 0.00 0.00 31 1016.3
20260506162004 71 300 0.0 0.0 0.00 0.00 0.00 31 1016.3
20260506161510 71 300 0.0 0.0 0.00 0.00 0.00 32 1016.3
20260506161004 70 300 0.0 2.0 0.00 0.00 0.00 32 1016.3
20260506160510 71 285 0.0 2.0 0.00 0.00 0.00 33 1016.4
20260506160018 71 307 0.0 0.0 0.00 0.00 0.00 32 1016.4
20260506155506 70 340 0.0 0.0 0.00 0.00 0.00 34 1016.4
20260506155007 69 304 0.0 2.0 0.00 0.00 0.00 34 1016.3
20260506154511 69 222 0.0 2.0 0.00 0.00 0.00 35 1016.3
20260506154009 69 127 0.0 1.0 0.00 0.00 0.00 36 1016.4
20260506153503 68 127 0.0 1.0 0.00 0.00 0.00 36 1016.4
20260506153007 68 128 0.0 1.0 0.00 0.00 0.00 37 1016.4
20260506152505 68 127 0.0 2.0 0.00 0.00 0.00 37 1016.4
20260506152007 67 126 0.0 2.0 0.00 0.00 0.00 37 1016.5